Date String (YYYY-MM-DD hh:mm:ss) UTC,Instrument flags,Ambient pressure (hPa),Sample flow (lpm),Bypass flow (lpm),Sample temperature (°C),Ambient temperature (°C),ASC tube jacket temperature (°C),LED temperature (°C),Box temperature (°C),Sample RH (%),Span deviation,Mass concentration (μg/m³),Mass concentration (μg/m³),Mass concentration (μg/m³)
DateTimeUTC,F1_M11,P_M11,Q1_M11,Q2_M11,T1_M11,T2_M11,T3_M11,T4_M11,T5_M11,U1_M11,ZSPAN_M11,X0_M11,X2_M11,X1_M11
2021-08-22 18:00:00,,0825.6,5.00,0.00,30.0,27.1,00.0,38.9,31.2,33.5,0000.9,0016.28,0008.78,0008.05
2021-08-22 18:01:00,,0825.6,4.99,0.00,29.8,26.1,00.0,38.9,30.9,33.6,0001.1,0016.80,0008.78,0008.08
2021-08-22 18:02:00,,0825.6,5.00,0.00,29.7,26.2,00.0,38.9,31.0,32.7,0001.1,0016.57,0008.80,0008.12
2021-08-22 18:03:00,,0825.6,5.00,0.00,29.7,26.7,00.0,38.8,31.1,32.4,0001.0,0015.92,0008.87,0008.15
2021-08-22 18:04:00,,0825.6,4.99,0.00,29.6,27.1,00.0,38.8,31.2,33.0,0001.2,0015.07,0008.95,0008.17
2021-08-22 18:05:00,,0825.6,5.00,0.00,29.7,27.5,00.0,38.8,31.2,32.9,0001.4,0014.36,0008.91,0008.18
2021-08-22 18:06:00,,0825.6,5.01,0.00,29.7,27.8,00.0,38.8,31.3,32.5,0001.6,0014.55,0008.89,0008.19
2021-08-22 18:07:00,,0825.5,5.00,0.00,29.7,28.1,00.0,38.8,31.4,31.6,0001.6,0014.63,0008.93,0008.20
2021-08-22 18:08:00,,0825.5,5.01,0.00,29.7,28.3,00.0,38.8,31.4,32.1,0001.6,0014.74,0008.96,0008.19
2021-08-22 18:09:00,,0825.5,5.00,0.00,29.8,28.5,00.0,38.8,31.5,32.4,0001.7,0015.03,0008.96,0008.17
2021-08-22 18:10:00,,0825.5,4.99,0.00,29.8,28.6,00.0,38.8,31.5,32.1,0001.6,0014.59,0008.93,0008.14
2021-08-22 18:11:00,,0825.6,5.01,0.00,29.8,28.8,00.0,38.8,31.6,32.8,0001.5,0014.61,0008.92,0008.15
2021-08-22 18:12:00,,0825.6,5.00,0.00,29.9,28.9,00.0,38.8,31.6,33.2,0001.4,0014.28,0008.91,0008.13
2021-08-22 18:13:00,,0825.6,5.00,0.00,29.9,29.0,00.0,38.8,31.7,32.0,0001.4,0014.26,0008.92,0008.12
2021-08-22 18:14:00,,0825.5,4.99,0.00,29.9,29.1,00.0,38.9,31.8,31.4,0001.3,0014.19,0008.87,0008.09
2021-08-22 18:15:00,,0825.5,5.01,0.00,30.0,29.1,00.0,38.9,31.8,32.0,0001.0,0014.08,0008.83,0008.08
2021-08-22 18:16:00,,0825.5,5.01,0.00,30.0,28.8,00.0,38.9,31.7,30.6,0001.0,0013.89,0008.80,0008.06
2021-08-22 18:17:00,,0825.4,4.99,0.00,29.9,27.1,00.0,38.9,31.2,30.7,0000.8,0013.80,0008.79,0008.03
2021-08-22 18:18:00,,0825.4,4.99,0.00,29.7,26.0,00.0,38.9,30.9,31.5,0000.6,0014.72,0008.73,0008.01
2021-08-22 18:19:00,,0825.3,5.00,0.00,29.6,26.1,00.0,38.8,30.9,31.5,0001.0,0014.94,0008.73,0008.00
2021-08-22 18:20:00,,0825.3,5.01,0.00,29.6,26.5,00.0,38.8,31.0,31.9,0001.3,0014.44,0008.71,0008.00
2021-08-22 18:21:00,,0825.3,5.00,0.00,29.5,27.0,00.0,38.8,31.1,32.1,0001.7,0014.44,0008.70,0007.98
2021-08-22 18:22:00,,0825.3,5.01,0.00,29.5,27.4,00.0,38.7,31.2,32.0,0002.1,0014.79,0008.73,0007.96
2021-08-22 18:23:00,,0825.3,4.99,0.00,29.6,27.7,00.0,38.7,31.3,32.6,0002.2,0014.90,0008.73,0007.94
2021-08-22 18:24:00,,0825.4,5.00,0.00,29.6,28.0,00.0,38.7,31.3,33.2,0002.0,0014.93,0008.69,0007.91
2021-08-22 18:25:00,,0825.3,5.01,0.00,29.6,28.2,00.0,38.7,31.4,32.3,0002.0,0015.22,0008.72,0007.90
2021-08-22 18:26:00,,0825.3,4.99,0.00,29.7,28.4,00.0,38.7,31.5,32.0,0002.3,0015.16,0008.69,0007.88
2021-08-22 18:27:00,,0825.3,5.00,0.00,29.7,28.6,00.0,38.7,31.5,31.9,0002.5,0016.07,0008.68,0007.85
2021-08-22 18:28:00,,0825.3,5.02,0.00,29.7,28.7,00.0,38.7,31.6,31.3,0002.6,0015.97,0008.70,0007.84
2021-08-22 18:29:00,,0825.3,4.99,0.00,29.8,28.8,00.0,38.8,31.6,30.9,0002.6,0015.07,0008.69,0007.82
2021-08-22 18:30:00,,0825.4,5.01,0.00,29.8,28.9,00.0,38.8,31.7,30.6,0002.3,0015.07,0008.61,0007.78
2021-08-22 18:31:00,,0825.3,4.99,0.00,29.9,28.6,00.0,38.8,31.6,30.1,0002.2,0014.82,0008.53,0007.72
2021-08-22 18:32:00,,0825.4,5.01,0.00,29.8,26.8,00.0,38.8,31.1,29.3,0002.0,0015.05,0008.48,0007.68
2021-08-22 18:33:00,,0825.3,5.00,0.00,29.6,25.9,00.0,38.8,30.9,30.4,0001.3,0014.90,0008.41,0007.63
2021-08-22 18:34:00,,0825.2,5.00,0.00,29.5,26.1,00.0,38.7,30.9,30.9,0001.3,0014.55,0008.35,0007.60
2021-08-22 18:35:00,,0825.3,5.00,0.00,29.4,26.5,00.0,38.7,30.9,30.6,0001.5,0014.32,0008.29,0007.58
2021-08-22 18:36:00,,0825.3,5.01,0.00,29.4,27.0,00.0,38.6,31.0,30.1,0001.7,0014.08,0008.19,0007.51
2021-08-22 18:37:00,,0825.3,4.99,0.00,29.4,27.4,00.0,38.6,31.1,28.3,0001.5,0014.04,0008.11,0007.44
2021-08-22 18:38:00,,0825.2,5.00,0.00,29.4,27.7,00.0,38.6,31.2,27.4,0001.4,0013.19,0008.02,0007.37
2021-08-22 18:39:00,,0825.2,5.00,0.00,29.5,28.0,00.0,38.6,31.3,27.7,0001.5,0013.50,0007.91,0007.30
2021-08-22 18:40:00,,0825.2,4.98,0.00,29.5,28.2,00.0,38.6,31.3,28.9,0001.4,0013.55,0007.87,0007.24
2021-08-22 18:41:00,,0825.2,5.01,0.00,29.6,28.4,00.0,38.6,31.4,28.7,0001.3,0013.10,0007.84,0007.20
2021-08-22 18:42:00,,0825.2,5.00,0.00,29.6,28.5,00.0,38.6,31.4,28.7,0001.3,0013.59,0007.82,0007.17
2021-08-22 18:43:00,,0825.2,5.01,0.00,29.6,28.7,00.0,38.6,31.5,28.3,0001.3,0013.40,0007.79,0007.15
2021-08-22 18:44:00,,0825.2,5.01,0.00,29.7,28.8,00.0,38.7,31.6,26.1,0001.6,0012.93,0007.72,0007.10
2021-08-22 18:45:00,,0825.2,5.00,0.00,29.7,28.9,00.0,38.7,31.6,28.0,0001.6,0013.00,0007.69,0007.05
2021-08-22 18:46:00,,0825.1,5.00,0.00,29.8,29.0,00.0,38.7,31.7,28.0,0001.8,0013.11,0007.65,0007.01
2021-08-22 18:47:00,,0825.1,4.99,0.00,29.8,28.6,00.0,38.7,31.6,27.3,0001.3,0013.15,0007.63,0007.00
2021-08-22 18:48:00,,0825.1,5.01,0.00,29.7,26.9,00.0,38.7,31.1,27.4,0001.1,0013.17,0007.62,0007.00
2021-08-22 18:49:00,,0825.2,4.99,0.00,29.5,25.9,00.0,38.7,30.8,28.6,0000.6,0013.34,0007.62,0007.00
2021-08-22 18:50:00,,0825.2,4.99,0.00,29.5,26.2,00.0,38.7,30.9,28.2,0000.6,0013.33,0007.67,0007.01
2021-08-22 18:51:00,,0825.2,5.00,0.00,29.4,26.6,00.0,38.6,31.0,28.5,0000.5,0013.24,0007.68,0007.02
2021-08-22 18:52:00,,0825.1,5.01,0.00,29.4,27.1,00.0,38.6,31.0,28.0,0000.5,0013.52,0007.65,0007.02
2021-08-22 18:53:00,,0824.9,5.01,0.00,29.4,27.5,00.0,38.6,31.1,28.0,0000.2,0014.22,0007.64,0007.01
2021-08-22 18:54:00,,0825.0,4.99,0.00,29.4,27.8,00.0,38.6,31.2,28.5,-000.0,0014.11,0007.62,0007.00
2021-08-22 18:55:00,,0825.1,5.00,0.00,29.5,28.1,00.0,38.6,31.3,29.1,-000.0,0014.09,0007.61,0007.00
2021-08-22 18:56:00,,0825.1,5.00,0.00,29.5,28.3,00.0,38.6,31.4,26.2,-000.1,0013.89,0007.58,0006.99
2021-08-22 18:57:00,,0825.1,4.99,0.00,29.6,28.5,00.0,38.6,31.4,25.7,-000.2,0013.80,0007.58,0006.97
2021-08-22 18:58:00,,0825.1,4.99,0.00,29.6,28.7,00.0,38.6,31.5,22.9,0000.2,0013.94,0007.57,0006.94
2021-08-22 18:59:00,,0825.1,4.99,0.00,29.7,28.8,00.0,38.6,31.5,23.3,0000.7,0013.91,0007.50,0006.87
